DLH09W EDDM-LEPA

Flight info

Callsign DLH09W
Flight time N/A
Altitude 39000
Route TURBU7S TURBU Y107 TOBSO DCT BAKOR DCT SUMIR DCT MISPO DCT PIDAD DCT TALEP DCT RARQU DCT BALEN UT250 RIXOT
Aircraft A346/H-SDE2E3FGHIJ3J4J5M1RWXY/LB1D1

Departure

Time N/A
Airport Munich Airport (EDDM)

Arrival

Time 2026-05-07 22:03
Airport Palma de Mallorca Airport (LEPA)
Time Latitude Longitude Altitude Speed Heading
2026-05-07 21:30 40.90673 5.61489 38996 ft 408 kts 234°
2026-05-07 21:30 40.89051 5.58466 38817 ft 408 kts 234°
2026-05-07 21:31 40.87406 5.55415 38559 ft 406 kts 234°
2026-05-07 21:31 40.85772 5.52387 38291 ft 403 kts 234°
2026-05-07 21:31 40.84152 5.49380 37983 ft 400 kts 233°
2026-05-07 21:31 40.82543 5.46394 37582 ft 398 kts 233°
2026-05-07 21:32 40.80940 5.43418 37113 ft 397 kts 233°
2026-05-07 21:32 40.79336 5.40440 36589 ft 398 kts 233°
2026-05-07 21:32 40.77730 5.37462 36057 ft 398 kts 233°
2026-05-07 21:32 40.76123 5.34483 35445 ft 398 kts 233°
2026-05-07 21:33 40.74514 5.31503 34850 ft 399 kts 233°
2026-05-07 21:33 40.72899 5.28514 34244 ft 400 kts 232°
2026-05-07 21:33 40.71279 5.25519 33626 ft 401 kts 232°
2026-05-07 21:33 40.69653 5.22519 32997 ft 402 kts 232°
2026-05-07 21:34 40.68022 5.19517 32348 ft 404 kts 233°
2026-05-07 21:34 40.66382 5.16501 31692 ft 406 kts 233°
2026-05-07 21:34 40.64730 5.13463 31028 ft 408 kts 233°
2026-05-07 21:34 40.63074 5.10419 30349 ft 410 kts 233°
2026-05-07 21:35 40.61407 5.07355 29660 ft 412 kts 233°
2026-05-07 21:35 40.59725 5.04265 28960 ft 415 kts 233°
2026-05-07 21:35 40.58040 5.01167 28238 ft 418 kts 233°
2026-05-07 21:35 40.56344 4.98055 27655 ft 417 kts 233°
2026-05-07 21:36 40.54656 4.94963 27216 ft 414 kts 233°
2026-05-07 21:36 40.54091 4.93927 27057 ft 413 kts 233°
2026-05-07 21:36 40.49512 4.85558 25703 ft 408 kts 233°
2026-05-07 21:37 40.47859 4.82545 25250 ft 405 kts 233°
2026-05-07 21:37 40.46212 4.79545 24817 ft 404 kts 233°
2026-05-07 21:37 40.44568 4.76555 24383 ft 403 kts 233°
2026-05-07 21:37 40.42930 4.73576 23938 ft 402 kts 233°
2026-05-07 21:38 40.41293 4.70602 23505 ft 401 kts 233°
2026-05-07 21:38 40.36663 4.62213 22807 ft 423 kts 232°
2026-05-07 21:39 40.34925 4.59072 22833 ft 427 kts 232°
2026-05-07 21:39 40.33176 4.55913 22859 ft 428 kts 232°
2026-05-07 21:39 40.31448 4.52794 22876 ft 428 kts 232°
2026-05-07 21:39 40.29696 4.49636 22898 ft 429 kts 232°
2026-05-07 21:40 40.27939 4.46471 22933 ft 429 kts 232°
2026-05-07 21:40 40.26179 4.43303 22958 ft 429 kts 232°
2026-05-07 21:40 40.24421 4.40142 22979 ft 430 kts 232°
2026-05-07 21:40 40.22658 4.36976 22986 ft 430 kts 232°
2026-05-07 21:41 40.20895 4.33812 22990 ft 430 kts 232°
2026-05-07 21:41 40.19132 4.30651 22993 ft 430 kts 232°
2026-05-07 21:41 40.17366 4.27488 22994 ft 430 kts 232°
2026-05-07 21:41 40.15600 4.24330 22994 ft 430 kts 232°
2026-05-07 21:42 40.13832 4.21172 22993 ft 430 kts 232°
2026-05-07 21:42 40.12066 4.18018 22993 ft 430 kts 232°
2026-05-07 21:42 40.10298 4.14865 22990 ft 430 kts 232°
2026-05-07 21:42 40.08528 4.11711 22818 ft 430 kts 231°
2026-05-07 21:43 40.06758 4.08564 22197 ft 429 kts 231°
2026-05-07 21:43 40.04999 4.05435 21667 ft 425 kts 231°
2026-05-07 21:43 40.03258 4.02341 21132 ft 421 kts 231°
2026-05-07 21:43 40.01528 3.99270 20616 ft 417 kts 231°
2026-05-07 21:44 39.99816 3.96236 20092 ft 413 kts 231°
2026-05-07 21:44 39.98121 3.93233 19599 ft 410 kts 231°
2026-05-07 21:44 39.96434 3.90248 19101 ft 406 kts 231°
2026-05-07 21:44 39.94763 3.87293 18604 ft 403 kts 231°
2026-05-07 21:45 39.93102 3.84360 18123 ft 400 kts 230°
2026-05-07 21:45 39.91451 3.81448 17631 ft 398 kts 231°
2026-05-07 21:45 39.89810 3.78561 17163 ft 395 kts 231°
2026-05-07 21:45 39.88178 3.75690 16707 ft 392 kts 231°
2026-05-07 21:46 39.86582 3.72883 16268 ft 389 kts 231°
2026-05-07 21:46 39.84977 3.70062 15833 ft 386 kts 231°
2026-05-07 21:46 39.83383 3.67263 15396 ft 383 kts 231°
2026-05-07 21:46 39.81800 3.64485 14971 ft 380 kts 232°
2026-05-07 21:47 39.80226 3.61724 14539 ft 377 kts 232°
2026-05-07 21:47 39.78666 3.58988 14114 ft 375 kts 232°
2026-05-07 21:47 39.77117 3.56274 13693 ft 372 kts 232°
2026-05-07 21:47 39.75580 3.53585 13268 ft 369 kts 232°
2026-05-07 21:48 39.74048 3.50910 12844 ft 367 kts 232°
2026-05-07 21:48 39.72528 3.48256 12422 ft 365 kts 232°
2026-05-07 21:48 39.71035 3.45607 12005 ft 362 kts 234°
2026-05-07 21:48 39.69669 3.42876 11657 ft 357 kts 238°
2026-05-07 21:49 39.68481 3.40112 11535 ft 344 kts 242°
2026-05-07 21:49 39.67425 3.37382 11402 ft 331 kts 243°
2026-05-07 21:49 39.66417 3.34747 11276 ft 319 kts 243°
2026-05-07 21:49 39.65445 3.32212 11157 ft 308 kts 243°
2026-05-07 21:50 39.64507 3.29773 11043 ft 296 kts 243°
2026-05-07 21:50 39.63599 3.27418 10938 ft 286 kts 243°
2026-05-07 21:50 39.62717 3.25134 10849 ft 281 kts 243°
2026-05-07 21:50 39.61844 3.22876 10690 ft 279 kts 243°
2026-05-07 21:51 39.60972 3.20621 10355 ft 280 kts 242°
2026-05-07 21:51 39.60098 3.18365 10033 ft 280 kts 242°
2026-05-07 21:51 39.59224 3.16109 9703 ft 280 kts 242°
2026-05-07 21:51 39.58350 3.13854 9394 ft 280 kts 242°
2026-05-07 21:52 39.57474 3.11596 9064 ft 280 kts 242°
2026-05-07 21:52 39.56610 3.09370 8754 ft 280 kts 242°
2026-05-07 21:52 39.56018 3.07842 8543 ft 280 kts 242°
2026-05-07 21:53 39.54036 3.02742 7869 ft 278 kts 242°
2026-05-07 21:53 39.53165 3.00505 7579 ft 277 kts 242°
2026-05-07 21:53 39.52299 2.98281 7293 ft 276 kts 242°
2026-05-07 21:53 39.51436 2.96066 6992 ft 275 kts 242°
2026-05-07 21:54 39.50576 2.93858 6711 ft 274 kts 242°
2026-05-07 21:54 39.49717 2.91657 6429 ft 273 kts 242°
2026-05-07 21:54 39.48870 2.89488 6150 ft 272 kts 242°
2026-05-07 21:54 39.48015 2.87300 5876 ft 272 kts 242°
2026-05-07 21:55 39.47160 2.85113 5577 ft 271 kts 242°
2026-05-07 21:55 39.46309 2.82938 5289 ft 270 kts 242°
2026-05-07 21:55 39.45459 2.80770 5003 ft 270 kts 242°
2026-05-07 21:56 39.43866 2.76569 4450 ft 268 kts 248°
2026-05-07 21:56 39.43357 2.74245 4168 ft 269 kts 260°
2026-05-07 21:56 39.43093 2.71850 3882 ft 268 kts 263°
2026-05-07 21:56 39.42884 2.69452 3598 ft 268 kts 263°
2026-05-07 21:57 39.42676 2.67058 3318 ft 267 kts 263°
2026-05-07 21:57 39.42463 2.64693 3174 ft 259 kts 263°
2026-05-07 21:57 39.42256 2.62460 3115 ft 248 kts 262°
2026-05-07 21:57 39.42051 2.60284 3047 ft 239 kts 262°
2026-05-07 21:58 39.41848 2.58144 2948 ft 240 kts 262°
2026-05-07 21:58 39.41736 2.56001 2746 ft 238 kts 280°
2026-05-07 21:58 39.42464 2.54147 2546 ft 232 kts 322°
2026-05-07 21:58 39.43878 2.53387 2369 ft 218 kts
2026-05-07 21:59 39.45361 2.53624 2160 ft 214 kts 16°
2026-05-07 21:59 39.46653 2.54465 1981 ft 207 kts 45°
2026-05-07 21:59 39.47556 2.55864 2011 ft 195 kts 56°
2026-05-07 22:00 39.49497 2.59972 1954 ft 178 kts 59°
2026-05-07 22:00 39.50136 2.61344 1750 ft 174 kts 59°
2026-05-07 22:00 39.50743 2.62638 1503 ft 162 kts 58°
2026-05-07 22:01 39.51311 2.63844 1293 ft 154 kts 58°
2026-05-07 22:02 39.53625 2.68759 471 ft 151 kts 58°
2026-05-07 22:02 39.54172 2.69923 266 ft 151 kts 58°
2026-05-07 22:02 39.54721 2.71081 51 ft 150 kts 58°
2026-05-07 22:02 39.55207 2.72110 39 ft 110 kts 58°
2026-05-07 22:03 39.55510 2.72750 38 ft 57 kts 58°
2026-05-07 22:03 39.55640 2.73024 38 ft 27 kts 58°
2026-05-07 22:03 39.55717 2.73236 38 ft 25 kts 82°
2026-05-07 22:03 39.55716 2.73390 38 ft 11 kts 103°
2026-05-07 22:04 39.55693 2.73439 38 ft 0 kts 149°
2026-05-07 22:05 39.55688 2.73443 38 ft 0 kts 149°
2026-05-07 22:05 39.55617 2.73503 38 ft 20 kts 146°
2026-05-07 22:05 39.55492 2.73604 38 ft 23 kts 148°
2026-05-07 22:06 39.55349 2.73716 38 ft 25 kts 149°
2026-05-07 22:06 39.55229 2.73810 38 ft 7 kts 149°
2026-05-07 22:07 39.55180 2.73655 38 ft 11 kts 302°
2026-05-07 22:07 39.55199 2.73627 38 ft 13 kts 318°
2026-05-07 22:08 39.55390 2.73332 38 ft 14 kts 240°
2026-05-07 22:08 39.55331 2.73207 38 ft 18 kts 238°
2026-05-07 22:08 39.55260 2.73055 38 ft 19 kts 239°
2026-05-07 22:08 39.55222 2.72976 38 ft 4 kts 234°
2026-05-07 22:09 39.55200 2.72951 38 ft 4 kts 197°
2026-05-07 22:09 39.55170 2.72957 38 ft 5 kts 165°
2026-05-07 22:09 39.55149 2.72965 38 ft 0 kts 164°
2026-05-07 22:09 39.55144 2.72966 38 ft 1 kts 165°